Regional Weather Roundup
Issued by NWS Huntsville, AL

Home | Current Version | Previous Version | Text Only | Print | Product List | Glossary On
Versions: 1 2 3 4 5 6 7 8 9 10 11 12 13 14 15 16 17 18 19 20 21 22 23 24 25 26 27
000
ASUS44 KHUN 212110
RWRHUN

WEATHER ROUNDUP FOR THE TENNESSEE VALLEY
NATIONAL WEATHER SERVICE HUNTSVILLE AL
400 PM CDT THU SEP 21 2017

ALZ001>004-212200-
NORTHWEST ALABAMA

CITY           SKY/WX    TMP DP  RH WIND       PRES   REMARKS
COURTLAND HCN    N/A     75 N/A N/A E6          N/A
RUSSELLVILLE     N/A     82 N/A N/A MISG        N/A
SHOALS AIRPORT CLOUDY    74  69  85 E13       30.05R THUNDER
SHOALS TVA RES   N/A     73 N/A N/A MISG        N/A
$$

ALZ005>007-016-212200-
NORTH CENTRAL ALABAMA

CITY           SKY/WX    TMP DP  RH WIND       PRES   REMARKS
CULLMAN AG STN   N/A     86 N/A N/A NE3         N/A
DECATUR AP     CLOUDY    88  72  58 NE9       30.02F HX  94
HUNTSVILLE AP  PTSUNNY   87  72  60 N7        30.02F HX  93
MERIDIANVILLE  SUNNY     86  68  54 N5        30.03F
REDSTONE ARSN  PTSUNNY   85  71  61 NE3       30.01F HX  90
VINEMONT AP    FAIR      85  68  57 NE3       30.05F
$$

ALZ008>010-212200-
NORTHEAST ALABAMA

CITY           SKY/WX    TMP DP  RH WIND       PRES   REMARKS
ALBERTVILLE    MOSUNNY   84  73  70 N6        30.03F HX  91
FORT PAYNE     NOT AVBL
SCOTTSBORO HCN   N/A     84 N/A N/A MISG        N/A
VALLEY HEAD      N/A     77 N/A N/A MISG        N/A
$$

TNZ076-096-097-212200-
SOUTHEASTERN MIDDLE TENNESSEE

CITY           SKY/WX    TMP DP  RH WIND       PRES   REMARKS
TULLAHOMA      SUNNY     84  66  54 CALM      30.05F
WINCHESTER     MOSUNNY   84  70  61 CALM      30.04F
$$

...SURROUNDING SITES...

CITY           SKY/WX    TMP DP  RH WIND       PRES   REMARKS
ATLANTA        MOSUNNY   87  65  47 VRB3      30.00F
ANNISTON       CLOUDY    81  66  60 SE3       30.02F
BIRMINGHAM     PTSUNNY   91  68  46 E7        30.02F HX  95
CHATTANOOGA    CLOUDY    88  66  48 N8        30.01F HX  90
DALTON         MOSUNNY   88  64  45 NE3       30.02F
GADSDEN        CLOUDY    83  75  77 SE6       30.02F HX  90
GOLDEN TRNGL   MOSUNNY   93  66  40 NE5       29.98F HX  96
HALEYVILLE     FAIR      88  72  58 CALM      30.04F HX  94
JACKSON TN     SUNNY     91  71  51 W7        30.00F HX  97
MEMPHIS        MOSUNNY   90  69  50 S3        29.99F HX  94
NASHVILLE      MOSUNNY   89  67  47 E5        30.02F HX  92
OXFORD MS      FAIR      88  70  55 N6        30.01F HX  92
ROME           MOSUNNY   85  73  67 SW5       30.00F HX  91
SAVANNAH       PTSUNNY   91  70  49 W5        29.99F HX  97
TUPELO         MOSUNNY   91  67  44 CALM      29.98F HX  94
TUSCALOOSA     MOSUNNY   92  68  45 SE6       29.97F HX  96
$$

...GULF COAST WEATHER...

CITY           SKY/WX    TMP DP  RH WIND       PRES   REMARKS
GULFPORT       MOSUNNY   89  75  63 S8        29.94F HX  99
PASCAGOULA     MOSUNNY   87  72  60 S8        29.94F HX  93
MOBILE         MOSUNNY   91  69  48 N7        29.95F HX  96
GULF SHORES    MOCLDY    86  74  66 CALM      29.95F HX  94
PENSACOLA      PTSUNNY   85  74  69 S5G26     29.95F HX  92
DESTIN         CLOUDY    86  74  67 VRB5      29.96S HX  94
PANAMA CITY    PTSUNNY   81  69  66 NE7       29.98R
APPALACHICOLA  TSTM      73  72  96 VRB3      29.98R FOG
$$





USA.gov is the U.S. government's official web portal to all federal, state and local government web resources and services.